Weather History for Provincetown, MA

Change the Weather History Date:

Sunday, November 27, 2011

  Actual Average Record
Temperature  
Mean Temperature 50 °F -  
Max Temperature 57 °F 47 °F 60 °F (1999)
Min Temperature 44 °F 36 °F 20 °F (1957)
Degree Days  
Heating Degree Days 14    
Moisture  
Dew Point 47 °F    
Average Humidity 84    
Maximum Humidity 93    
Minimum Humidity 67    
Precipitation  
Precipitation 0.00 in - - ()
Sea Level Pressure  
Sea Level Pressure 30.20 in    
Wind  
Wind Speed 8 mph (South)    
Max Wind Speed 15 mph    
Max Gust Speed 20 mph    
Visibility 10 miles    
Events      
Averages and records for this station are not official NWS values.
T = Trace of Precipitation, MM = Missing Value Source: NWS Daily Summary

Daily Weather History Graph

Daily Weather History Graph

Search for Another Location

Airport:

Trip Planner

Search our weather history database for the weather conditions in past years. The results will help you decide how hot, cold, wet, or windy it might be!

Date:

Astronomy

Nov. 27, 2011 Rise Set
Actual Time 6:44 AM EST 4:11 PM EST
Civil Twilight 6:13 AM EST 4:42 PM EST
Nautical Twilight 5:39 AM EST 5:17 PM EST
Astronomical Twilight 5:05 AM EST 5:50 PM EST
Moon 9:07 AM EST (11/27) 6:46 PM EST (11/27)
Length of Visible Light 10h 28m
Length of Day
9h 26m
Waxing Crescent, 8% of the Moon is Illuminated
Nov 27
Waxing Crescent
Dec 2
First Quarter
Dec 10
Full
Dec 17
Last Quarter
Dec 24
New

Hourly Weather History & Observations

Time (EST) Temp. Windchill Dew Point Humidity Pressure Visibility Wind Dir Wind Speed Gust Speed Precip Events Conditions
12:15 AM 44.6 °F 43.1 °F 39.2 °F 81% 30.23 in 10.0 mi SE 3.5 mph - N/A   Clear
12:35 AM 44.6 °F 41.4 °F 39.2 °F 81% 30.22 in 10.0 mi SE 5.8 mph - N/A   Clear
12:55 AM 46.4 °F 43.5 °F 42.8 °F 87% 30.21 in 10.0 mi SSE 5.8 mph - N/A   Clear
1:15 AM 46.4 °F 42.4 °F 42.8 °F 87% 30.21 in 10.0 mi SE 8.1 mph - N/A   Clear
1:35 AM 46.4 °F 43.5 °F 42.8 °F 87% 30.21 in 10.0 mi SSE 5.8 mph - N/A   Clear
1:55 AM 46.4 °F 43.5 °F 42.8 °F 87% 30.21 in 10.0 mi South 5.8 mph - N/A   Clear
2:15 AM 46.4 °F 43.5 °F 42.8 °F 87% 30.21 in 10.0 mi SSE 5.8 mph - N/A   Clear
2:35 AM 48.2 °F - 44.6 °F 87% 30.20 in 10.0 mi SSE 8.1 mph - N/A   Clear
2:55 AM 48.2 °F - 44.6 °F 87% 30.21 in 10.0 mi South 6.9 mph - N/A   Clear
3:15 AM 48.2 °F - 44.6 °F 87% 30.21 in 10.0 mi South 5.8 mph - N/A   Clear
3:35 AM 48.2 °F - 44.6 °F 87% 30.21 in 10.0 mi South 6.9 mph - N/A   Clear
3:55 AM 48.2 °F - 44.6 °F 87% 30.21 in 10.0 mi South 6.9 mph - N/A   Clear
4:15 AM 48.2 °F - 44.6 °F 87% 30.21 in 10.0 mi South 5.8 mph - N/A   Clear
4:35 AM 48.2 °F - 44.6 °F 87% 30.21 in 10.0 mi South 5.8 mph - N/A   Clear
4:55 AM 48.2 °F - 44.6 °F 87% 30.21 in 10.0 mi South 6.9 mph - N/A   Clear
5:15 AM 48.2 °F - 44.6 °F 87% 30.20 in 10.0 mi SSE 5.8 mph - N/A   Clear
5:35 AM 48.2 °F - 44.6 °F 87% 30.21 in 10.0 mi SSE 5.8 mph - N/A   Clear
5:55 AM 48.2 °F - 44.6 °F 87% 30.21 in 10.0 mi SSE 6.9 mph - N/A   Clear
6:15 AM 48.2 °F - 44.6 °F 87% 30.21 in 10.0 mi SSE 6.9 mph - N/A   Clear
6:35 AM 48.2 °F - 44.6 °F 87% 30.21 in 9.0 mi South 6.9 mph - N/A   Clear
6:55 AM 48.2 °F - 44.6 °F 87% 30.22 in 7.0 mi SSE 5.8 mph - N/A   Clear
7:15 AM 46.4 °F 43.5 °F 44.6 °F 93% 30.23 in 7.0 mi South 5.8 mph - N/A   Clear
7:35 AM 48.2 °F - 44.6 °F 87% 30.23 in 9.0 mi SSE 6.9 mph - N/A   Clear
8:15 AM 48.2 °F - 46.4 °F 93% 30.23 in 10.0 mi SSE 6.9 mph - N/A   Partly Cloudy
8:35 AM 48.2 °F - 44.6 °F 87% 30.23 in 0.8 mi SSE 6.9 mph - N/A   Overcast
8:55 AM 48.2 °F - 46.4 °F 93% 30.23 in 1.2 mi SSE 6.9 mph - N/A   Overcast
9:35 AM 51.8 °F - 48.2 °F 88% 30.24 in 10.0 mi SSE 8.1 mph - N/A   Clear
10:15 AM 55.4 °F - 48.2 °F 77% 30.23 in 10.0 mi SSE 10.4 mph - N/A   Clear
10:35 AM 55.4 °F - 46.4 °F 72% 30.23 in 10.0 mi SSE 10.4 mph - N/A   Clear
10:55 AM 55.4 °F - 48.2 °F 77% 30.21 in 10.0 mi SSE 12.7 mph 17.3 mph N/A   Clear
11:15 AM 57.2 °F - 48.2 °F 72% 30.21 in 10.0 mi South 10.4 mph - N/A   Clear
11:35 AM 57.2 °F - 46.4 °F 67% 30.21 in 10.0 mi South 11.5 mph 18.4 mph N/A   Clear
11:55 AM 57.2 °F - 48.2 °F 72% 30.20 in 10.0 mi South 11.5 mph 16.1 mph N/A   Clear
12:15 PM 57.2 °F - 48.2 °F 72% 30.20 in 10.0 mi South 11.5 mph - N/A   Clear
12:55 PM 57.2 °F - 50.0 °F 77% 30.19 in 10.0 mi South 11.5 mph 16.1 mph N/A   Clear
1:15 PM 57.2 °F - 51.8 °F 82% 30.19 in 10.0 mi South 15.0 mph 18.4 mph N/A   Clear
1:35 PM 55.4 °F - 50.0 °F 82% 30.19 in 10.0 mi South 12.7 mph 17.3 mph N/A   Clear
1:55 PM 55.4 °F - 51.8 °F 88% 30.18 in 10.0 mi South 13.8 mph 18.4 mph N/A   Clear
2:15 PM 55.4 °F - 51.8 °F 88% 30.19 in 10.0 mi SSW 10.4 mph 17.3 mph N/A   Clear
2:35 PM 55.4 °F - 50.0 °F 82% 30.19 in 10.0 mi SSW 8.1 mph - N/A   Clear
2:55 PM 55.4 °F - 48.2 °F 77% 30.18 in 10.0 mi South 10.4 mph - N/A   Clear
3:15 PM 55.4 °F - 48.2 °F 77% 30.18 in 10.0 mi South 11.5 mph 16.1 mph N/A   Clear
3:35 PM 55.4 °F - 48.2 °F 77% 30.17 in 10.0 mi South 12.7 mph 17.3 mph N/A   Clear
3:55 PM 55.4 °F - 50.0 °F 82% 30.17 in 10.0 mi South 12.7 mph - N/A   Clear
4:15 PM 53.6 °F - 50.0 °F 88% 30.17 in 10.0 mi South 11.5 mph 19.6 mph N/A   Clear
4:35 PM 53.6 °F - 48.2 °F 82% 30.17 in 10.0 mi South 10.4 mph 16.1 mph N/A   Clear
5:15 PM 53.6 °F - 48.2 °F 82% 30.18 in 10.0 mi SSE 10.4 mph - N/A   Clear
5:35 PM 53.6 °F - 48.2 °F 82% 30.17 in 10.0 mi South 10.4 mph - N/A   Clear
5:55 PM 53.6 °F - 48.2 °F 82% 30.17 in 10.0 mi South 11.5 mph 19.6 mph N/A   Clear
6:15 PM 53.6 °F - 48.2 °F 82% 30.17 in 10.0 mi South 11.5 mph 18.4 mph N/A   Clear
6:35 PM 53.6 °F - 48.2 °F 82% 30.17 in 10.0 mi South 11.5 mph 17.3 mph N/A   Clear
6:55 PM 53.6 °F - 48.2 °F 82% 30.17 in 10.0 mi South 12.7 mph - N/A   Clear
7:15 PM 53.6 °F - 50.0 °F 88% 30.17 in 10.0 mi South 12.7 mph 17.3 mph N/A   Clear
7:35 PM 53.6 °F - 50.0 °F 88% 30.18 in 10.0 mi South 11.5 mph - N/A   Clear
7:55 PM 53.6 °F - 50.0 °F 88% 30.18 in 10.0 mi South 12.7 mph - N/A   Clear
8:15 PM 53.6 °F - 50.0 °F 88% 30.18 in 10.0 mi South 11.5 mph - N/A   Clear
8:35 PM 53.6 °F - 50.0 °F 88% 30.18 in 10.0 mi South 11.5 mph - N/A   Clear
8:55 PM 53.6 °F - 48.2 °F 82% 30.18 in 10.0 mi South 11.5 mph - N/A   Clear
9:15 PM 53.6 °F - 48.2 °F 82% 30.17 in 10.0 mi SSW 10.4 mph - N/A   Clear
9:35 PM 53.6 °F - 48.2 °F 82% 30.17 in 10.0 mi SSW 11.5 mph - N/A   Clear
9:55 PM 51.8 °F - 48.2 °F 88% 30.17 in 10.0 mi South 9.2 mph - N/A   Clear
10:15 PM 53.6 °F - 48.2 °F 82% 30.16 in 10.0 mi South 10.4 mph - N/A   Clear
10:35 PM 53.6 °F - 48.2 °F 82% 30.16 in 10.0 mi SSW 10.4 mph - N/A   Clear
10:55 PM 53.6 °F - 48.2 °F 82% 30.15 in 10.0 mi SSW 10.4 mph - N/A   Clear
11:15 PM 53.6 °F - 48.2 °F 82% 30.16 in 10.0 mi SSW 8.1 mph - N/A   Clear
11:35 PM 53.6 °F - 48.2 °F 82% 30.15 in 10.0 mi SSW 10.4 mph - N/A   Clear
11:55 PM 53.6 °F - 48.2 °F 82% 30.15 in 10.0 mi SW 10.4 mph - N/A   Clear